Time,TemperatureF,DewpointF,PressureIn,WindDirection,WindDirectionDegrees,WindSpeedMPH,WindSpeedGustMPH,Humidity,HourlyPrecipIn,Conditions,Clouds,dailyrainin,SolarRadiationWatts/m^2,SoftwareType,DateUTC
2013-06-21 00:00:00,75.0,-99.9,19.99,ESE,115,1.0,13.0,255,0.00,,,0.00,0,Wunderground v.1.15,2013-06-21 04:00:00,
2013-06-21 00:05:00,75.0,-99.9,19.98,East,82,3.0,13.0,255,0.00,,,0.00,0,Wunderground v.1.15,2013-06-21 04:05:00,
2013-06-21 00:15:00,74.8,-99.9,19.98,East,83,10.0,13.0,255,0.00,,,0.00,0,Wunderground v.1.15,2013-06-21 04:15:00,
2013-06-21 00:21:00,75.0,-99.9,19.98,East,99,3.0,13.0,255,0.00,,,0.00,0,Wunderground v.1.15,2013-06-21 04:21:00,
2013-06-21 00:26:00,75.0,-99.9,19.98,NE,52,5.0,13.0,255,0.00,,,0.00,0,Wunderground v.1.15,2013-06-21 04:26:00,
2013-06-21 00:36:00,75.0,-99.9,19.99,NE,35,3.0,13.0,255,0.00,,,0.00,0,Wunderground v.1.15,2013-06-21 04:36:00,
2013-06-21 00:41:00,75.1,-99.9,19.99,East,81,10.0,13.0,255,0.00,,,0.00,0,Wunderground v.1.15,2013-06-21 04:41:00,
2013-06-21 00:51:00,75.1,-99.9,19.98,East,86,4.0,13.0,255,0.00,,,0.00,0,Wunderground v.1.15,2013-06-21 04:51:00,
2013-06-21 01:01:00,74.9,-99.9,19.99,East,99,4.0,12.0,255,0.00,,,0.00,0,Wunderground v.1.15,2013-06-21 05:01:00,
2013-06-21 01:10:00,74.9,-99.9,19.98,East,97,5.0,12.0,255,0.00,,,0.00,0,Wunderground v.1.15,2013-06-21 05:10:00,
2013-06-21 01:21:00,74.7,-99.9,19.98,ENE,72,3.0,12.0,255,0.00,,,0.00,0,Wunderground v.1.15,2013-06-21 05:21:00,
2013-06-21 01:30:00,74.7,-99.9,19.99,East,80,4.0,12.0,255,0.00,,,0.00,0,Wunderground v.1.15,2013-06-21 05:30:00,
2013-06-21 01:40:00,74.6,-99.9,19.99,ENE,61,3.0,12.0,255,0.00,,,0.00,0,Wunderground v.1.15,2013-06-21 05:40:00,
2013-06-21 01:50:00,74.3,-99.9,19.98,ENE,63,2.0,12.0,255,0.00,,,0.00,0,Wunderground v.1.15,2013-06-21 05:50:00,
2013-06-21 02:00:00,74.0,-99.9,19.98,NE,38,2.0,11.0,255,0.00,,,0.00,0,Wunderground v.1.15,2013-06-21 06:00:00,
2013-06-21 02:10:00,73.7,-99.9,19.99,NE,43,4.0,11.0,255,0.00,,,0.00,0,Wunderground v.1.15,2013-06-21 06:10:00,
2013-06-21 02:20:00,72.9,-99.9,19.99,NE,42,3.0,11.0,255,0.00,,,0.00,0,Wunderground v.1.15,2013-06-21 06:20:00,
2013-06-21 02:30:00,72.6,-99.9,19.98,NE,40,6.0,11.0,255,0.00,,,0.00,0,Wunderground v.1.15,2013-06-21 06:30:00,
2013-06-21 02:40:00,72.4,-99.9,19.98,NNE,33,5.0,11.0,255,0.00,,,0.00,0,Wunderground v.1.15,2013-06-21 06:40:00,
2013-06-21 02:50:00,72.2,-99.9,19.99,NE,42,6.0,11.0,255,0.00,,,0.00,0,Wunderground v.1.15,2013-06-21 06:50:00,
2013-06-21 03:00:00,71.9,-99.9,19.98,NE,43,1.0,9.0,255,0.00,,,0.00,0,Wunderground v.1.15,2013-06-21 07:00:00,
2013-06-21 03:10:00,71.8,-99.9,19.99,NE,51,1.0,9.0,255,0.00,,,0.00,0,Wunderground v.1.15,2013-06-21 07:10:00,
2013-06-21 03:16:00,71.7,-99.9,19.99,NE,56,3.0,9.0,255,0.00,,,0.00,0,Wunderground v.1.15,2013-06-21 07:16:00,
2013-06-21 03:26:00,71.7,-99.9,19.98,NE,44,3.0,9.0,255,0.00,,,0.00,0,Wunderground v.1.15,2013-06-21 07:26:00,
2013-06-21 03:36:00,71.9,-99.9,19.98,East,87,4.0,9.0,255,0.00,,,0.00,0,Wunderground v.1.15,2013-06-21 07:36:00,
2013-06-21 03:46:00,72.2,-99.9,19.99,ESE,106,0.0,9.0,255,0.00,,,0.00,0,Wunderground v.1.15,2013-06-21 07:46:00,
2013-06-21 04:01:00,72.9,-99.9,19.98,ENE,71,2.0,10.0,255,0.00,,,0.00,0,Wunderground v.1.15,2013-06-21 08:01:00,
2013-06-21 04:06:00,72.8,-99.9,19.99,NE,53,2.0,10.0,255,0.00,,,0.00,0,Wunderground v.1.15,2013-06-21 08:06:00,
2013-06-21 04:16:00,72.4,-99.9,19.98,NE,37,5.0,10.0,255,0.00,,,0.00,0,Wunderground v.1.15,2013-06-21 08:16:00,
2013-06-21 04:25:00,71.8,-99.9,19.99,NE,34,2.0,10.0,255,0.00,,,0.00,0,Wunderground v.1.15,2013-06-21 08:25:00,
2013-06-21 04:35:00,71.4,-99.9,19.98,NE,37,5.0,10.0,255,0.00,,,0.00,0,Wunderground v.1.15,2013-06-21 08:35:00,
2013-06-21 04:45:00,71.5,-99.9,19.99,North,9,2.0,10.0,255,0.00,,,0.00,0,Wunderground v.1.15,2013-06-21 08:45:00,
2013-06-21 05:00:00,71.2,-99.9,19.99,NE,52,2.0,10.0,255,0.00,,,0.00,0,Wunderground v.1.15,2013-06-21 09:00:00,
2013-06-21 05:10:00,70.8,-99.9,19.98,North,10,1.0,10.0,255,0.00,,,0.00,0,Wunderground v.1.15,2013-06-21 09:10:00,
2013-06-21 05:20:00,70.6,-99.9,19.98,ENE,57,5.0,10.0,255,0.00,,,0.00,0,Wunderground v.1.15,2013-06-21 09:20:00,
2013-06-21 05:30:00,70.5,-99.9,19.99,NNE,31,2.0,10.0,255,0.00,,,0.00,0,Wunderground v.1.15,2013-06-21 09:30:00,
2013-06-21 05:40:00,70.6,-99.9,19.98,ENE,59,2.0,10.0,255,0.00,,,0.00,0,Wunderground v.1.15,2013-06-21 09:40:00,
2013-06-21 05:50:00,70.9,-99.9,19.98,NE,51,3.0,10.0,255,0.00,,,0.00,0,Wunderground v.1.15,2013-06-21 09:50:00,
2013-06-21 06:00:00,71.0,-99.9,19.98,NNE,26,3.0,9.0,255,0.00,,,0.00,0,Wunderground v.1.15,2013-06-21 10:00:00,
2013-06-21 06:05:00,71.0,-99.9,19.99,NE,47,4.0,9.0,255,0.00,,,0.00,0,Wunderground v.1.15,2013-06-21 10:05:00,
2013-06-21 06:16:00,70.9,-99.9,19.99,ENE,69,4.0,9.0,255,0.00,,,0.00,0,Wunderground v.1.15,2013-06-21 10:16:00,
2013-06-21 06:26:00,70.7,-99.9,19.98,NNE,17,6.0,9.0,255,0.00,,,0.00,0,Wunderground v.1.15,2013-06-21 10:26:00,
2013-06-21 06:31:00,70.7,-99.9,19.98,NE,41,3.0,9.0,255,0.00,,,0.00,0,Wunderground v.1.15,2013-06-21 10:31:00,
2013-06-21 06:41:00,70.7,-99.9,19.98,NE,47,6.0,9.0,255,0.00,,,0.00,0,Wunderground v.1.15,2013-06-21 10:41:00,
2013-06-21 06:51:00,70.9,-99.9,19.98,ENE,69,3.0,9.0,255,0.00,,,0.00,0,Wunderground v.1.15,2013-06-21 10:51:00,
2013-06-21 07:00:00,71.0,-99.9,19.98,NE,47,6.0,13.0,255,0.00,,,0.00,0,Wunderground v.1.15,2013-06-21 11:00:00,
2013-06-21 07:06:00,71.0,-99.9,19.99,NE,43,6.0,13.0,255,0.00,,,0.00,0,Wunderground v.1.15,2013-06-21 11:06:00,
2013-06-21 07:15:00,70.9,-99.9,19.99,NE,46,3.0,13.0,255,0.00,,,0.00,0,Wunderground v.1.15,2013-06-21 11:15:00,
2013-06-21 07:26:00,70.8,-99.9,19.98,NE,55,6.0,13.0,255,0.00,,,0.00,0,Wunderground v.1.15,2013-06-21 11:26:00,
2013-06-21 07:35:00,71.0,-99.9,19.98,NNE,26,8.0,13.0,255,0.00,,,0.00,0,Wunderground v.1.15,2013-06-21 11:35:00,
2013-06-21 07:45:00,71.9,-99.9,19.98,NE,50,7.0,13.0,255,0.00,,,0.00,0,Wunderground v.1.15,2013-06-21 11:45:00,
2013-06-21 08:00:00,72.4,-99.9,19.98,ENE,63,2.0,11.0,255,0.00,,,0.00,0,Wunderground v.1.15,2013-06-21 12:00:00,
2013-06-21 08:10:00,72.6,-99.9,19.99,NNE,20,6.0,11.0,255,0.00,,,0.00,0,Wunderground v.1.15,2013-06-21 12:10:00,
2013-06-21 08:20:00,73.7,-99.9,19.99,NNE,19,7.0,11.0,255,0.00,,,0.00,0,Wunderground v.1.15,2013-06-21 12:20:00,
2013-06-21 08:30:00,74.3,-99.9,19.98,NE,45,7.0,11.0,255,0.00,,,0.00,0,Wunderground v.1.15,2013-06-21 12:30:00,
2013-06-21 08:40:00,74.4,-99.9,19.99,NNE,18,8.0,11.0,255,0.00,,,0.00,0,Wunderground v.1.15,2013-06-21 12:40:00,
2013-06-21 08:50:00,74.6,-99.9,19.99,NE,54,5.0,11.0,255,0.00,,,0.00,0,Wunderground v.1.15,2013-06-21 12:50:00,
2013-06-21 09:00:00,76.4,-99.9,19.98,ENE,63,3.0,14.0,255,0.00,,,0.00,0,Wunderground v.1.15,2013-06-21 13:00:00,
2013-06-21 09:10:00,76.3,-99.9,19.99,NE,42,5.0,14.0,255,0.00,,,0.00,0,Wunderground v.1.15,2013-06-21 13:10:00,
2013-06-21 09:16:00,76.8,-99.9,19.98,NE,51,4.0,14.0,255,0.00,,,0.00,0,Wunderground v.1.15,2013-06-21 13:16:00,
2013-06-21 09:26:00,77.1,-99.9,19.98,East,88,5.0,14.0,255,0.00,,,0.00,0,Wunderground v.1.15,2013-06-21 13:26:00,
2013-06-21 09:36:00,77.2,-99.9,19.99,ENE,65,3.0,14.0,255,0.00,,,0.00,0,Wunderground v.1.15,2013-06-21 13:36:00,
2013-06-21 09:46:00,77.8,-99.9,19.98,ENE,70,4.0,14.0,255,0.00,,,0.00,0,Wunderground v.1.15,2013-06-21 13:46:00,
2013-06-21 09:51:00,77.8,-99.9,19.98,ENE,58,2.0,14.0,255,0.00,,,0.00,0,Wunderground v.1.15,2013-06-21 13:51:00,
2013-06-21 10:01:00,79.5,-99.9,19.99,NE,37,3.0,18.0,255,0.00,,,0.00,0,Wunderground v.1.15,2013-06-21 14:01:00,
2013-06-21 10:10:00,79.1,-99.9,19.99,NE,56,5.0,18.0,255,0.00,,,0.00,0,Wunderground v.1.15,2013-06-21 14:10:00,
2013-06-21 10:20:00,79.5,-99.9,19.98,NNE,18,5.0,18.0,255,0.00,,,0.00,0,Wunderground v.1.15,2013-06-21 14:20:00,
2013-06-21 10:26:00,79.4,-99.9,19.99,NE,50,7.0,18.0,255,0.00,,,0.00,0,Wunderground v.1.15,2013-06-21 14:26:00,
2013-06-21 10:35:00,80.4,-99.9,19.98,NNE,13,8.0,18.0,255,0.00,,,0.00,0,Wunderground v.1.15,2013-06-21 14:35:00,
2013-06-21 10:45:00,78.9,-99.9,19.99,East,94,3.0,18.0,255,0.00,,,0.00,0,Wunderground v.1.15,2013-06-21 14:45:00,
2013-06-21 10:50:00,78.8,-99.9,19.99,ENE,58,9.0,18.0,255,0.00,,,0.00,0,Wunderground v.1.15,2013-06-21 14:50:00,
2013-06-21 11:00:00,79.1,-99.9,19.98,NNE,13,6.0,16.0,255,0.00,,,0.00,0,Wunderground v.1.15,2013-06-21 15:00:00,
2013-06-21 11:05:00,79.3,-99.9,19.98,East,81,5.0,16.0,255,0.00,,,0.00,0,Wunderground v.1.15,2013-06-21 15:05:00,
2013-06-21 11:15:00,80.2,-99.9,19.99,NE,46,9.0,16.0,255,0.00,,,0.00,0,Wunderground v.1.15,2013-06-21 15:15:00,
2013-06-21 11:25:00,79.9,-99.9,19.98,ENE,74,4.0,16.0,255,0.00,,,0.00,0,Wunderground v.1.15,2013-06-21 15:25:00,
2013-06-21 11:35:00,80.5,-99.9,19.98,ENE,59,7.0,16.0,255,0.00,,,0.00,0,Wunderground v.1.15,2013-06-21 15:35:00,
2013-06-21 11:40:00,79.7,-99.9,19.99,SE,133,5.0,16.0,255,0.00,,,0.00,0,Wunderground v.1.15,2013-06-21 15:40:00,
2013-06-21 11:50:00,80.7,-99.9,19.99,NE,38,7.0,16.0,255,0.00,,,0.00,0,Wunderground v.1.15,2013-06-21 15:50:00,
2013-06-21 12:00:00,80.7,-99.9,19.99,ESE,112,3.0,15.0,255,0.00,,,0.00,0,Wunderground v.1.15,2013-06-21 16:00:00,
2013-06-21 12:10:00,82.0,-99.9,19.99,ENE,57,2.0,15.0,255,0.00,,,0.00,0,Wunderground v.1.15,2013-06-21 16:10:00,
2013-06-21 12:16:00,82.2,-99.9,19.99,NE,47,4.0,15.0,255,0.00,,,0.00,0,Wunderground v.1.15,2013-06-21 16:16:00,
2013-06-21 12:26:00,80.3,-99.9,19.99,East,89,5.0,15.0,255,0.00,,,0.00,0,Wunderground v.1.15,2013-06-21 16:26:00,
2013-06-21 12:36:00,82.4,-99.9,19.98,NE,47,10.0,15.0,255,0.00,,,0.00,0,Wunderground v.1.15,2013-06-21 16:36:00,
2013-06-21 12:41:00,81.9,-99.9,19.99,SE,138,11.0,15.0,255,0.00,,,0.00,0,Wunderground v.1.15,2013-06-21 16:41:00,
2013-06-21 12:51:00,82.0,-99.9,19.98,East,98,5.0,15.0,255,0.00,,,0.00,0,Wunderground v.1.15,2013-06-21 16:51:00,
2013-06-21 13:01:00,81.8,-99.9,19.98,ESE,108,3.0,15.0,255,0.00,,,0.00,0,Wunderground v.1.15,2013-06-21 17:01:00,
2013-06-21 13:10:00,82.1,-99.9,19.99,NNE,22,0.0,15.0,255,0.00,,,0.00,0,Wunderground v.1.15,2013-06-21 17:10:00,
2013-06-21 13:20:00,80.0,-99.9,19.98,ESE,123,4.0,15.0,255,0.00,,,0.00,0,Wunderground v.1.15,2013-06-21 17:20:00,
2013-06-21 13:31:00,80.2,-99.9,19.99,SE,129,6.0,15.0,255,0.00,,,0.00,0,Wunderground v.1.15,2013-06-21 17:31:00,
2013-06-21 13:40:00,80.8,-99.9,19.99,ENE,68,8.0,15.0,255,0.00,,,0.00,0,Wunderground v.1.15,2013-06-21 17:40:00,
2013-06-21 13:45:00,80.7,-99.9,19.99,SE,136,8.0,15.0,255,0.00,,,0.00,0,Wunderground v.1.15,2013-06-21 17:45:00,
2013-06-21 13:50:00,81.0,-99.9,19.99,SE,131,11.0,15.0,255,0.00,,,0.00,0,Wunderground v.1.15,2013-06-21 17:50:00,
2013-06-21 14:05:00,81.7,-99.9,19.98,SSE,147,9.0,15.0,255,0.00,,,0.00,0,Wunderground v.1.15,2013-06-21 18:05:00,
2013-06-21 14:10:00,80.9,-99.9,19.99,SE,134,11.0,15.0,255,0.00,,,0.00,0,Wunderground v.1.15,2013-06-21 18:10:00,
2013-06-21 14:15:00,80.8,-99.9,19.98,East,89,2.0,15.0,255,0.00,,,0.00,0,Wunderground v.1.15,2013-06-21 18:15:00,
2013-06-21 14:20:00,81.1,-99.9,19.99,SE,127,10.0,15.0,255,0.00,,,0.00,0,Wunderground v.1.15,2013-06-21 18:20:00,
2013-06-21 14:25:00,81.2,-99.9,19.98,SE,129,19.0,19.0,255,0.00,,,0.00,0,Wunderground v.1.15,2013-06-21 18:25:00,
2013-06-21 14:30:00,81.1,-99.9,19.98,SE,144,10.0,15.0,255,0.00,,,0.00,0,Wunderground v.1.15,2013-06-21 18:30:00,
2013-06-21 14:35:00,81.2,-99.9,19.98,ESE,106,4.0,15.0,255,0.00,,,0.00,0,Wunderground v.1.15,2013-06-21 18:35:00,
2013-06-21 14:50:00,81.0,-99.9,19.99,ESE,107,12.0,15.0,255,0.00,,,0.00,0,Wunderground v.1.15,2013-06-21 18:50:00,
2013-06-21 15:00:00,80.6,-99.9,19.98,East,100,4.0,19.0,255,0.00,,,0.00,0,Wunderground v.1.15,2013-06-21 19:00:00,
2013-06-21 15:05:00,81.0,-99.9,19.99,ESE,120,13.0,19.0,255,0.00,,,0.00,0,Wunderground v.1.15,2013-06-21 19:05:00,
2013-06-21 15:11:00,80.8,-99.9,19.98,ESE,113,8.0,19.0,255,0.00,,,0.00,0,Wunderground v.1.15,2013-06-21 19:11:00,
2013-06-21 15:16:00,80.4,-99.9,19.98,SSE,155,10.0,19.0,255,0.00,,,0.00,0,Wunderground v.1.15,2013-06-21 19:16:00,
2013-06-21 15:26:00,81.0,-99.9,19.98,ESE,114,15.0,19.0,255,0.00,,,0.00,0,Wunderground v.1.15,2013-06-21 19:26:00,
2013-06-21 15:31:00,80.3,-99.9,19.98,ESE,120,20.0,20.0,255,0.00,,,0.00,0,Wunderground v.1.15,2013-06-21 19:31:00,
2013-06-21 15:36:00,80.9,-99.9,19.99,SE,139,9.0,20.0,255,0.00,,,0.00,0,Wunderground v.1.15,2013-06-21 19:36:00,
2013-06-21 15:41:00,81.0,-99.9,19.98,ESE,108,13.0,19.0,255,0.00,,,0.00,0,Wunderground v.1.15,2013-06-21 19:41:00,
2013-06-21 15:51:00,81.2,-99.9,19.98,SE,133,5.0,19.0,255,0.00,,,0.00,0,Wunderground v.1.15,2013-06-21 19:51:00,
2013-06-21 16:01:00,81.4,-99.9,19.98,SE,134,8.0,25.0,255,0.00,,,0.00,0,Wunderground v.1.15,2013-06-21 20:01:00,